| time (UTC) | temp F | wind direction | speed MPH | gust MPH | rain 1hr in | rain 24hr in | rain mn in | humidity % | barometer mb |
| 20260901131539 | 76 | 276 | 3.0 | 3.0 | 0.00 | 0.00 | 0.00 | 94 | 1014.2 |
| 20260901131034 | 76 | 243 | 4.0 | 5.0 | 0.00 | 0.00 | 0.00 | 94 | 1014.3 |
| 20260901130534 | 76 | 226 | 3.0 | 3.0 | 0.00 | 0.00 | 0.00 | 94 | 1014.6 |
| 20260901130033 | 76 | 279 | 3.0 | 5.0 | 0.00 | 0.00 | 0.00 | 95 | 1014.4 |
| 20260901125531 | 76 | 319 | 1.0 | 1.0 | 0.00 | 0.00 | 0.00 | 96 | 1014.4 |
| 20260901125027 | 75 | 291 | 0.0 | 0.0 | 0.00 | 0.00 | 0.00 | 98 | 1014.3 |
| 20260901124522 | 74 | 298 | 0.0 | 0.0 | 0.00 | 0.00 | 0.00 | 99 | 1014.2 |
| 20260901124021 | 74 | 273 | 2.0 | 2.0 | 0.00 | 0.00 | 0.00 | 99 | 1014.1 |
| 20260901123516 | 73 | 335 | 0.0 | 0.0 | 0.00 | 0.00 | 0.00 | 99 | 1014.1 |
| 20260901123016 | 72 | 296 | 0.0 | 0.0 | 0.00 | 0.00 | 0.00 | 99 | 1014.0 |
| 20260901122514 | 72 | 289 | 0.0 | 0.0 | 0.00 | 0.00 | 0.00 | 99 | 1014.1 |
| 20260901122014 | 72 | 274 | 0.0 | 0.0 | 0.00 | 0.00 | 0.00 | 99 | 1014.0 |
| 20260901121508 | 72 | 264 | 0.0 | 0.0 | 0.00 | 0.00 | 0.00 | 99 | 1013.7 |
| 20260901121003 | 72 | 307 | 0.0 | 0.0 | 0.00 | 0.00 | 0.00 | 99 | 1013.9 |
| 20260901120458 | 70 | 299 | 0.0 | 0.0 | 0.00 | 0.00 | 0.00 | 99 | 1014.0 |
| 20260901115953 | 70 | 304 | 0.0 | 0.0 | 0.00 | 0.00 | 0.00 | 99 | 1013.7 |
| 20260901115448 | 70 | 307 | 0.0 | 0.0 | 0.00 | 0.00 | 0.00 | 99 | 1013.6 |
| 20260901114946 | 70 | 289 | 0.0 | 0.0 | 0.00 | 0.00 | 0.00 | 99 | 1014.0 |
| 20260901114441 | 70 | 306 | 0.0 | 0.0 | 0.00 | 0.00 | 0.00 | 99 | 1013.8 |
| 20260901113938 | 70 | 324 | 0.0 | 0.0 | 0.00 | 0.00 | 0.00 | 99 | 1013.7 |
| 20260901113438 | 70 | 308 | 0.0 | 0.0 | 0.00 | 0.00 | 0.00 | 99 | 1013.6 |
| 20260901112928 | 70 | 284 | 0.0 | 0.0 | 0.00 | 0.00 | 0.00 | 99 | 1013.7 |
| 20260901112423 | 70 | 295 | 0.0 | 0.0 | 0.00 | 0.00 | 0.00 | 99 | 1013.4 |
| 20260901111918 | 70 | 289 | 0.0 | 0.0 | 0.00 | 0.00 | 0.00 | 99 | 1013.3 |
| 20260901111416 | 70 | 295 | 0.0 | 0.0 | 0.00 | 0.00 | 0.00 | 99 | 1013.3 |
| 20260901110915 | 70 | 292 | 0.0 | 0.0 | 0.00 | 0.00 | 0.00 | 99 | 1013.4 |
| 20260901110411 | 70 | 295 | 0.0 | 0.0 | 0.00 | 0.00 | 0.00 | 99 | 1013.6 |
| 20260901105907 | 70 | 243 | 0.0 | 0.0 | 0.00 | 0.00 | 0.00 | 99 | 1013.2 |
| 20260901105403 | 70 | 275 | 0.0 | 0.0 | 0.00 | 0.00 | 0.00 | 99 | 1013.6 |
| 20260901104858 | 70 | 284 | 0.0 | 0.0 | 0.00 | 0.00 | 0.00 | 99 | 1013.3 |
| 20260901104353 | 70 | 287 | 0.0 | 0.0 | 0.00 | 0.00 | 0.00 | 99 | 1013.2 |
| 20260901103849 | 70 | 283 | 0.0 | 0.0 | 0.00 | 0.00 | 0.00 | 99 | 1013.5 |
| 20260901103348 | 70 | 285 | 0.0 | 0.0 | 0.00 | 0.00 | 0.00 | 99 | 1013.4 |
| 20260901102843 | 70 | 286 | 0.0 | 0.0 | 0.00 | 0.00 | 0.00 | 99 | 1013.3 |
| 20260901102337 | 70 | 282 | 0.0 | 0.0 | 0.00 | 0.00 | 0.00 | 99 | 1013.3 |
| 20260901101833 | 70 | 282 | 0.0 | 0.0 | 0.00 | 0.00 | 0.00 | 99 | 1013.4 |
| 20260901101333 | 70 | 284 | 0.0 | 0.0 | 0.00 | 0.00 | 0.00 | 99 | 1013.5 |
| 20260901100827 | 71 | 269 | 0.0 | 0.0 | 0.00 | 0.00 | 0.00 | 99 | 1013.5 |
| 20260901100322 | 71 | 286 | 0.0 | 0.0 | 0.00 | 0.00 | 0.00 | 99 | 1013.4 |
| 20260901095820 | 71 | 276 | 0.0 | 1.0 | 0.00 | 0.00 | 0.00 | 99 | 1013.6 |
| 20260901095318 | 71 | 290 | 0.0 | 0.0 | 0.00 | 0.00 | 0.00 | 99 | 1013.4 |
| 20260901094813 | 71 | 294 | 0.0 | 0.0 | 0.00 | 0.00 | 0.00 | 99 | 1013.4 |
| 20260901094307 | 71 | 288 | 0.0 | 0.0 | 0.00 | 0.00 | 0.00 | 99 | 1013.1 |
| 20260901093802 | 71 | 279 | 0.0 | 0.0 | 0.00 | 0.00 | 0.00 | 99 | 1013.3 |
| 20260901093301 | 71 | 275 | 0.0 | 1.0 | 0.00 | 0.00 | 0.00 | 99 | 1013.3 |
| 20260901092757 | 71 | 269 | 0.0 | 0.0 | 0.00 | 0.00 | 0.00 | 99 | 1013.3 |
| 20260901092253 | 70 | 291 | 0.0 | 0.0 | 0.00 | 0.00 | 0.00 | 99 | 1013.2 |
| 20260901091749 | 70 | 289 | 0.0 | 0.0 | 0.00 | 0.00 | 0.00 | 99 | 1013.2 |
| 20260901091244 | 70 | 285 | 0.0 | 0.0 | 0.00 | 0.00 | 0.00 | 99 | 1013.4 |
| 20260901090744 | 70 | 238 | 0.0 | 0.0 | 0.00 | 0.00 | 0.00 | 99 | 1013.3 |
| 20260901090239 | 70 | 287 | 0.0 | 0.0 | 0.00 | 0.00 | 0.00 | 99 | 1013.3 |
| 20260901085735 | 71 | 270 | 0.0 | 0.0 | 0.00 | 0.00 | 0.00 | 99 | 1013.4 |
| 20260901085230 | 71 | 254 | 0.0 | 0.0 | 0.00 | 0.00 | 0.00 | 99 | 1013.4 |
| 20260901084726 | 71 | 279 | 0.0 | 0.0 | 0.00 | 0.00 | 0.00 | 99 | 1013.4 |
| 20260901084222 | 70 | 292 | 0.0 | 0.0 | 0.00 | 0.00 | 0.00 | 99 | 1013.2 |
| 20260901083717 | 70 | 287 | 0.0 | 0.0 | 0.00 | 0.00 | 0.00 | 99 | 1013.2 |
| 20260901083216 | 70 | 311 | 0.0 | 0.0 | 0.00 | 0.00 | 0.00 | 99 | 1013.1 |
| 20260901082715 | 70 | 284 | 0.0 | 0.0 | 0.00 | 0.00 | 0.00 | 99 | 1013.0 |
| 20260901082211 | 70 | 336 | 0.0 | 0.0 | 0.00 | 0.00 | 0.00 | 99 | 1013.0 |
| 20260901081706 | 70 | 285 | 0.0 | 0.0 | 0.00 | 0.00 | 0.00 | 99 | 1013.2 |
| 20260901081206 | 70 | 293 | 0.0 | 0.0 | 0.00 | 0.00 | 0.00 | 99 | 1013.0 |
| 20260901080701 | 70 | 284 | 0.0 | 0.0 | 0.00 | 0.00 | 0.00 | 99 | 1013.0 |
| 20260901080159 | 70 | 284 | 0.0 | 0.0 | 0.00 | 0.00 | 0.00 | 99 | 1013.1 |
| 20260901075654 | 70 | 297 | 0.0 | 0.0 | 0.00 | 0.00 | 0.00 | 99 | 1013.1 |
| 20260901075149 | 71 | 280 | 0.0 | 0.0 | 0.00 | 0.00 | 0.00 | 99 | 1013.0 |
| 20260901074649 | 71 | 290 | 0.0 | 0.0 | 0.00 | 0.00 | 0.00 | 99 | 1012.7 |
| 20260901074144 | 71 | 279 | 0.0 | 0.0 | 0.00 | 0.00 | 0.00 | 99 | 1013.2 |
| 20260901073640 | 71 | 279 | 0.0 | 0.0 | 0.00 | 0.00 | 0.00 | 99 | 1012.9 |
| 20260901073135 | 71 | 272 | 0.0 | 0.0 | 0.00 | 0.00 | 0.00 | 99 | 1013.0 |
| 20260901072630 | 71 | 283 | 0.0 | 0.0 | 0.00 | 0.00 | 0.00 | 99 | 1013.2 |
| 20260901072125 | 71 | 272 | 0.0 | 0.0 | 0.00 | 0.00 | 0.00 | 99 | 1012.7 |
| 20260901071625 | 71 | 285 | 0.0 | 0.0 | 0.00 | 0.00 | 0.00 | 99 | 1013.1 |
| 20260901071124 | 71 | 287 | 0.0 | 0.0 | 0.00 | 0.00 | 0.00 | 99 | 1013.1 |
| 20260901070619 | 71 | 289 | 0.0 | 0.0 | 0.00 | 0.00 | 0.00 | 99 | 1013.1 |
| 20260901070114 | 71 | 283 | 0.0 | 0.0 | 0.00 | 0.00 | 0.00 | 99 | 1013.1 |
| 20260901065603 | 71 | 291 | 0.0 | 0.0 | 0.00 | 0.00 | 0.00 | 99 | 1013.2 |
| 20260901065102 | 71 | 314 | 0.0 | 0.0 | 0.00 | 0.00 | 0.00 | 99 | 1013.1 |
| 20260901064555 | 71 | 265 | 0.0 | 0.0 | 0.00 | 0.00 | 0.00 | 99 | 1013.0 |
| 20260901064050 | 71 | 274 | 0.0 | 0.0 | 0.00 | 0.00 | 0.00 | 99 | 1013.1 |
| 20260901063547 | 71 | 293 | 0.0 | 0.0 | 0.00 | 0.00 | 0.00 | 99 | 1013.2 |
| 20260901063043 | 71 | 292 | 0.0 | 0.0 | 0.00 | 0.00 | 0.00 | 99 | 1012.9 |
| 20260901062539 | 72 | 292 | 0.0 | 0.0 | 0.00 | 0.00 | 0.00 | 99 | 1013.2 |
| 20260901062035 | 72 | 292 | 0.0 | 0.0 | 0.00 | 0.00 | 0.00 | 99 | 1013.2 |
| 20260901061531 | 72 | 283 | 0.0 | 0.0 | 0.00 | 0.00 | 0.00 | 99 | 1013.1 |
| 20260901061031 | 72 | 291 | 0.0 | 0.0 | 0.00 | 0.00 | 0.00 | 99 | 1013.3 |
| 20260901060525 | 72 | 283 | 0.0 | 0.0 | 0.00 | 0.00 | 0.00 | 99 | 1013.3 |
| 20260901060020 | 72 | 313 | 0.0 | 0.0 | 0.00 | 0.00 | 0.00 | 99 | 1013.5 |
| 20260901055516 | 72 | 280 | 0.0 | 0.0 | 0.00 | 0.00 | 0.00 | 99 | 1013.0 |
| 20260901055013 | 72 | 298 | 0.0 | 0.0 | 0.00 | 0.00 | 0.00 | 98 | 1013.1 |
| 20260901054509 | 72 | 292 | 0.0 | 0.0 | 0.00 | 0.00 | 0.00 | 98 | 1013.4 |
| 20260901054005 | 73 | 297 | 0.0 | 0.0 | 0.00 | 0.00 | 0.00 | 98 | 1013.3 |
| 20260901053501 | 73 | 208 | 1.0 | 1.0 | 0.00 | 0.00 | 0.00 | 98 | 1013.3 |
| 20260901052956 | 73 | 298 | 0.0 | 0.0 | 0.00 | 0.00 | 0.00 | 98 | 1013.3 |
| 20260901052452 | 73 | 278 | 0.0 | 0.0 | 0.00 | 0.00 | 0.00 | 98 | 1013.3 |
| 20260901051950 | 73 | 261 | 1.0 | 1.0 | 0.00 | 0.00 | 0.00 | 98 | 1013.5 |
| 20260901051446 | 72 | 304 | 1.0 | 1.0 | 0.00 | 0.00 | 0.00 | 98 | 1013.3 |
| 20260901050945 | 72 | 332 | 0.0 | 0.0 | 0.00 | 0.00 | 0.00 | 98 | 1013.4 |
| 20260901050441 | 72 | 321 | 0.0 | 0.0 | 0.00 | 0.00 | 0.00 | 97 | 1013.3 |
| 20260901045941 | 72 | 308 | 0.0 | 0.0 | 0.00 | 0.00 | 0.00 | 97 | 1013.3 |
| 20260901045436 | 72 | 313 | 0.0 | 0.0 | 0.00 | 0.00 | 0.00 | 97 | 1013.4 |
| 20260901044931 | 73 | 304 | 0.0 | 0.0 | 0.00 | 0.00 | 0.00 | 96 | 1013.3 |
| 20260901044427 | 73 | 322 | 0.0 | 0.0 | 0.00 | 0.00 | 0.00 | 96 | 1013.3 |
| 20260901043923 | 73 | 294 | 0.0 | 0.0 | 0.00 | 0.00 | 0.00 | 95 | 1013.3 |
| 20260901043419 | 73 | 283 | 0.0 | 0.0 | 0.00 | 0.00 | 0.00 | 95 | 1013.4 |
| 20260901042918 | 73 | 273 | 0.0 | 0.0 | 0.00 | 0.00 | 0.00 | 95 | 1013.4 |
| 20260901042413 | 73 | 297 | 0.0 | 0.0 | 0.00 | 0.00 | 0.00 | 95 | 1013.5 |
| 20260901041908 | 73 | 318 | 0.0 | 0.0 | 0.00 | 0.00 | 0.00 | 94 | 1013.3 |
| 20260901041403 | 73 | 281 | 0.0 | 0.0 | 0.00 | 0.00 | 0.00 | 94 | 1013.4 |
| 20260901040902 | 73 | 295 | 0.0 | 0.0 | 0.00 | 0.00 | 0.00 | 94 | 1013.4 |
| 20260901040402 | 73 | 318 | 0.0 | 1.0 | 0.00 | 0.00 | 0.00 | 93 | 1013.5 |
| 20260901035856 | 73 | 307 | 1.0 | 1.0 | 0.00 | 0.08 | 0.08 | 94 | 1013.3 |
| 20260901035354 | 73 | 312 | 0.0 | 0.0 | 0.00 | 0.08 | 0.08 | 94 | 1013.2 |
| 20260901034853 | 73 | 307 | 0.0 | 0.0 | 0.00 | 0.08 | 0.08 | 93 | 1013.2 |
| 20260901034348 | 73 | 221 | 0.0 | 0.0 | 0.00 | 0.08 | 0.08 | 93 | 1013.3 |
| 20260901033843 | 73 | 285 | 1.0 | 1.0 | 0.00 | 0.08 | 0.08 | 93 | 1013.4 |
| 20260901033342 | 73 | 299 | 0.0 | 0.0 | 0.00 | 0.08 | 0.08 | 92 | 1013.5 |
| 20260901032841 | 73 | 259 | 0.0 | 0.0 | 0.00 | 0.08 | 0.08 | 92 | 1013.6 |
| 20260901032341 | 73 | 312 | 0.0 | 0.0 | 0.00 | 0.08 | 0.08 | 91 | 1013.4 |
| 20260901031836 | 74 | 294 | 1.0 | 1.0 | 0.00 | 0.08 | 0.08 | 91 | 1013.5 |
| 20260901031332 | 74 | 279 | 0.0 | 0.0 | 0.00 | 0.08 | 0.08 | 90 | 1013.3 |
| 20260901030831 | 74 | 291 | 1.0 | 2.0 | 0.00 | 0.08 | 0.08 | 90 | 1013.7 |
| 20260901030327 | 74 | 287 | 1.0 | 1.0 | 0.00 | 0.08 | 0.08 | 90 | 1013.5 |
| 20260901025826 | 74 | 296 | 3.0 | 3.0 | 0.00 | 0.08 | 0.08 | 90 | 1013.3 |
| 20260901025321 | 74 | 276 | 2.0 | 2.0 | 0.00 | 0.08 | 0.08 | 89 | 1013.3 |
| 20260901024816 | 73 | 261 | 2.0 | 2.0 | 0.00 | 0.08 | 0.08 | 89 | 1013.1 |
| 20260901024315 | 73 | 275 | 0.0 | 1.0 | 0.00 | 0.08 | 0.08 | 90 | 1013.3 |
| 20260901023813 | 73 | 238 | 0.0 | 0.0 | 0.00 | 0.08 | 0.08 | 89 | 1013.0 |
| 20260901023308 | 74 | 322 | 0.0 | 0.0 | 0.00 | 0.08 | 0.08 | 89 | 1013.0 |
| 20260901022804 | 74 | 252 | 0.0 | 1.0 | 0.00 | 0.08 | 0.08 | 88 | 1013.2 |
| 20260901022300 | 74 | 284 | 0.0 | 0.0 | 0.00 | 0.08 | 0.08 | 88 | 1013.2 |
| 20260901021754 | 74 | 280 | 1.0 | 1.0 | 0.00 | 0.08 | 0.08 | 87 | 1013.4 |
| 20260901021250 | 73 | 303 | 1.0 | 2.0 | 0.00 | 0.08 | 0.08 | 88 | 1013.2 |
| 20260901020745 | 74 | 25 | 0.0 | 0.0 | 0.00 | 0.08 | 0.08 | 87 | 1013.3 |
| 20260901020240 | 74 | 300 | 2.0 | 3.0 | 0.00 | 0.08 | 0.08 | 87 | 1013.0 |
| 20260901015735 | 74 | 274 | 0.0 | 0.0 | 0.00 | 0.08 | 0.08 | 87 | 1013.2 |
| 20260901015231 | 74 | 286 | 1.0 | 2.0 | 0.00 | 0.08 | 0.08 | 86 | 1013.4 |
| 20260901014730 | 74 | 264 | 1.0 | 2.0 | 0.00 | 0.08 | 0.08 | 86 | 1013.3 |
| 20260901014226 | 73 | 309 | 1.0 | 2.0 | 0.00 | 0.08 | 0.08 | 87 | 1013.3 |
| 20260901013721 | 73 | 298 | 0.0 | 0.0 | 0.00 | 0.08 | 0.08 | 87 | 1013.2 |
| 20260901013217 | 73 | 276 | 0.0 | 0.0 | 0.00 | 0.08 | 0.08 | 87 | 1013.2 |
| 20260901012713 | 73 | 324 | 1.0 | 1.0 | 0.00 | 0.08 | 0.08 | 86 | 1013.2 |
| 20260901012213 | 73 | 231 | 3.0 | 3.0 | 0.00 | 0.08 | 0.08 | 87 | 1013.0 |
| 20260901011709 | 73 | 297 | 0.0 | 0.0 | 0.00 | 0.08 | 0.08 | 88 | 1013.1 |
| 20260901011208 | 73 | 260 | 1.0 | 2.0 | 0.00 | 0.08 | 0.08 | 86 | 1013.0 |
| 20260901010702 | 73 | 270 | 0.0 | 1.0 | 0.00 | 0.08 | 0.08 | 88 | 1013.0 |
| 20260901010157 | 72 | 346 | 0.0 | 0.0 | 0.00 | 0.08 | 0.08 | 89 | 1012.9 |
| 20260901005656 | 72 | 267 | 0.0 | 0.0 | 0.00 | 0.08 | 0.08 | 89 | 1012.6 |
| 20260901005152 | 73 | 303 | 0.0 | 0.0 | 0.00 | 0.08 | 0.08 | 89 | 1013.0 |
| 20260901004651 | 73 | 284 | 0.0 | 0.0 | 0.00 | 0.08 | 0.08 | 88 | 1012.7 |
| 20260901004145 | 73 | 305 | 0.0 | 0.0 | 0.00 | 0.08 | 0.08 | 87 | 1012.7 |
| 20260901003635 | 73 | 286 | 0.0 | 0.0 | 0.00 | 0.08 | 0.08 | 87 | 1012.5 |
| 20260901003134 | 74 | 281 | 0.0 | 0.0 | 0.00 | 0.08 | 0.08 | 86 | 1012.7 |
| 20260901002634 | 74 | 298 | 2.0 | 2.0 | 0.00 | 0.08 | 0.08 | 86 | 1012.4 |
| 20260901002128 | 74 | 326 | 0.0 | 0.0 | 0.00 | 0.08 | 0.08 | 85 | 1012.6 |
| 20260901001624 | 74 | 294 | 0.0 | 0.0 | 0.00 | 0.08 | 0.08 | 85 | 1012.3 |
| 20260901001119 | 74 | 333 | 0.0 | 0.0 | 0.00 | 0.08 | 0.08 | 86 | 1012.4 |
| 20260901000614 | 74 | 277 | 0.0 | 0.0 | 0.00 | 0.08 | 0.08 | 86 | 1012.1 |
| 20260901000109 | 74 | 299 | 0.0 | 0.0 | 0.00 | 0.08 | 0.08 | 86 | 1012.2 |
| 20260831235603 | 75 | 258 | 1.0 | 1.0 | 0.00 | 0.08 | 0.08 | 85 | 1012.0 |
| 20260831235059 | 75 | 231 | 0.0 | 0.0 | 0.00 | 0.08 | 0.08 | 85 | 1012.1 |
| 20260831234552 | 75 | 287 | 0.0 | 0.0 | 0.00 | 0.08 | 0.08 | 84 | 1012.0 |
| 20260831234048 | 75 | 321 | 1.0 | 2.0 | 0.00 | 0.08 | 0.08 | 84 | 1012.2 |
| 20260831233543 | 75 | 52 | 0.0 | 1.0 | 0.00 | 0.08 | 0.08 | 84 | 1012.0 |
| 20260831233039 | 76 | 319 | 1.0 | 1.0 | 0.00 | 0.08 | 0.08 | 83 | 1011.9 |
| 20260831232534 | 76 | 299 | 0.0 | 1.0 | 0.00 | 0.08 | 0.08 | 83 | 1012.0 |
| 20260831232030 | 76 | 81 | 0.0 | 1.0 | 0.00 | 0.08 | 0.08 | 83 | 1012.2 |
| 20260831231526 | 77 | 197 | 1.0 | 1.0 | 0.00 | 0.08 | 0.08 | 83 | 1012.3 |
| 20260831231021 | 77 | 292 | 1.0 | 2.0 | 0.00 | 0.08 | 0.08 | 81 | 1012.0 |
| 20260831230516 | 77 | 351 | 0.0 | 0.0 | 0.00 | 0.08 | 0.08 | 81 | 1012.3 |
| 20260831230011 | 77 | 278 | 0.0 | 1.0 | 0.00 | 0.08 | 0.08 | 82 | 1012.3 |
| 20260831225507 | 76 | 312 | 1.0 | 1.0 | 0.00 | 0.08 | 0.08 | 83 | 1012.2 |
| 20260831225006 | 77 | 344 | 0.0 | 0.0 | 0.00 | 0.08 | 0.08 | 83 | 1012.4 |
| 20260831224501 | 77 | 46 | 1.0 | 2.0 | 0.00 | 0.08 | 0.08 | 81 | 1012.5 |
| 20260831223956 | 78 | 87 | 2.0 | 2.0 | 0.00 | 0.08 | 0.08 | 78 | 1012.9 |
| 20260831223452 | 79 | 307 | 1.0 | 1.0 | 0.00 | 0.08 | 0.08 | 78 | 1013.0 |
| 20260831222948 | 79 | 313 | 1.0 | 2.0 | 0.00 | 0.08 | 0.08 | 79 | 1012.6 |
| 20260831222444 | 79 | 292 | 1.0 | 2.0 | 0.00 | 0.08 | 0.08 | 79 | 1012.9 |
| 20260831221944 | 78 | 87 | 0.0 | 1.0 | 0.00 | 0.08 | 0.08 | 79 | 1013.0 |
| 20260831221440 | 79 | 134 | 1.0 | 2.0 | 0.00 | 0.08 | 0.08 | 80 | 1012.7 |
| 20260831220935 | 79 | 189 | 2.0 | 2.0 | 0.00 | 0.08 | 0.08 | 79 | 1013.0 |
| 20260831220430 | 78 | 224 | 2.0 | 3.0 | 0.00 | 0.08 | 0.08 | 80 | 1013.1 |
| 20260831215925 | 78 | 228 | 3.0 | 3.0 | 0.00 | 0.08 | 0.08 | 82 | 1012.7 |
| 20260831215421 | 78 | 205 | 1.0 | 2.0 | 0.00 | 0.08 | 0.08 | 84 | 1013.2 |
| 20260831214917 | 78 | 182 | 5.0 | 6.0 | 0.12 | 0.08 | 0.08 | 85 | 1013.2 |
| 20260831214414 | 79 | 167 | 0.0 | 1.0 | 0.12 | 0.08 | 0.08 | 82 | 1013.4 |
| 20260831213910 | 78 | 208 | 1.0 | 2.0 | 0.00 | 0.06 | 0.06 | 82 | 1013.3 |
| 20260831213406 | 78 | 286 | 1.0 | 2.0 | 0.00 | 0.06 | 0.06 | 84 | 1013.3 |
| 20260831212901 | 78 | 246 | 2.0 | 2.0 | 0.00 | 0.06 | 0.06 | 86 | 1013.6 |
| 20260831212357 | 78 | 293 | 1.0 | 1.0 | 0.00 | 0.06 | 0.06 | 88 | 1013.3 |
| 20260831211856 | 78 | 194 | 3.0 | 3.0 | 0.00 | 0.06 | 0.06 | 88 | 1013.6 |
| 20260831211356 | 78 | 300 | 1.0 | 1.0 | 0.00 | 0.06 | 0.06 | 88 | 1013.4 |
| 20260831210856 | 78 | 294 | 1.0 | 2.0 | 0.00 | 0.06 | 0.06 | 88 | 1013.4 |
| 20260831210351 | 78 | 182 | 2.0 | 2.0 | 0.00 | 0.06 | 0.06 | 88 | 1013.4 |
| 20260831205847 | 77 | 250 | 1.0 | 1.0 | 0.00 | 0.06 | 0.06 | 90 | 1013.3 |
| 20260831205343 | 77 | 293 | 2.0 | 2.0 | 0.00 | 0.06 | 0.06 | 89 | 1013.9 |
| 20260831204837 | 77 | 307 | 0.0 | 1.0 | 0.00 | 0.06 | 0.06 | 90 | 1013.5 |
| 20260831204336 | 77 | 175 | 1.0 | 3.0 | 0.00 | 0.06 | 0.06 | 91 | 1013.8 |
| 20260831203836 | 77 | 28 | 0.0 | 1.0 | 0.00 | 0.06 | 0.06 | 91 | 1013.6 |
| 20260831203331 | 77 | 182 | 1.0 | 5.0 | 0.00 | 0.06 | 0.06 | 90 | 1013.7 |
| 20260831202829 | 77 | 178 | 0.0 | 0.0 | 0.00 | 0.06 | 0.06 | 90 | 1013.5 |
| 20260831202325 | 77 | 216 | 3.0 | 3.0 | 0.00 | 0.06 | 0.06 | 90 | 1013.7 |
| 20260831201824 | 77 | 348 | 2.0 | 2.0 | 0.00 | 0.06 | 0.06 | 90 | 1013.7 |
| 20260831201323 | 77 | 231 | 2.0 | 2.0 | 0.00 | 0.06 | 0.06 | 89 | 1013.8 |
| 20260831200819 | 77 | 303 | 1.0 | 1.0 | 0.00 | 0.06 | 0.06 | 89 | 1013.6 |
| 20260831200314 | 77 | 76 | 0.0 | 0.0 | 0.00 | 0.06 | 0.06 | 89 | 1013.7 |
| 20260831195809 | 77 | 238 | 2.0 | 3.0 | 0.00 | 0.06 | 0.06 | 88 | 1013.7 |
| 20260831195306 | 77 | 315 | 1.0 | 1.0 | 0.00 | 0.06 | 0.06 | 88 | 1013.9 |
| 20260831194800 | 77 | 223 | 0.0 | 0.0 | 0.00 | 0.06 | 0.06 | 88 | 1014.2 |
| 20260831194255 | 77 | 305 | 1.0 | 2.0 | 0.00 | 0.06 | 0.06 | 87 | 1014.3 |
| 20260831193749 | 77 | 115 | 1.0 | 1.0 | 0.00 | 0.06 | 0.06 | 87 | 1014.4 |
| 20260831193244 | 77 | 54 | 1.0 | 1.0 | 0.00 | 0.06 | 0.06 | 86 | 1014.4 |
| 20260831192739 | 77 | 233 | 3.0 | 5.0 | 0.00 | 0.06 | 0.06 | 85 | 1014.7 |
| 20260831192234 | 77 | 64 | 3.0 | 5.0 | 0.00 | 0.06 | 0.06 | 85 | 1014.9 |
| 20260831191730 | 77 | 49 | 7.0 | 10.0 | 0.00 | 0.06 | 0.06 | 84 | 1014.8 |
| 20260831191226 | 77 | 53 | 1.0 | 5.0 | 0.00 | 0.06 | 0.06 | 87 | 1014.7 |
| 20260831190721 | 76 | 74 | 1.0 | 2.0 | 0.00 | 0.06 | 0.06 | 88 | 1014.9 |
| 20260831190221 | 75 | 148 | 3.0 | 5.0 | 0.00 | 0.06 | 0.06 | 91 | 1015.0 |
| 20260831185716 | 74 | 84 | 1.0 | 2.0 | 0.00 | 0.06 | 0.06 | 94 | 1015.2 |
| 20260831185211 | 73 | 89 | 0.0 | 0.0 | 0.00 | 0.06 | 0.06 | 97 | 1015.4 |
| 20260831184710 | 73 | 67 | 3.0 | 5.0 | 0.00 | 0.06 | 0.06 | 97 | 1015.5 |
| 20260831184207 | 72 | 69 | 1.0 | 2.0 | 0.00 | 0.06 | 0.06 | 98 | 1015.8 |
| 20260831183705 | 72 | 56 | 3.0 | 5.0 | 0.00 | 0.06 | 0.06 | 99 | 1015.6 |
| 20260831183200 | 72 | 96 | 1.0 | 2.0 | 0.00 | 0.06 | 0.06 | 99 | 1015.6 |
| 20260831182659 | 72 | 65 | 2.0 | 5.0 | 0.00 | 0.06 | 0.06 | 99 | 1015.6 |
| 20260831182155 | 72 | 71 | 2.0 | 3.0 | 0.00 | 0.06 | 0.06 | 99 | 1015.9 |
| 20260831181649 | 72 | 73 | 5.0 | 5.0 | 0.00 | 0.06 | 0.06 | 99 | 1015.7 |
| 20260831181144 | 71 | 89 | 3.0 | 3.0 | 0.00 | 0.06 | 0.06 | 99 | 1015.8 |
| 20260831180639 | 71 | 62 | 4.0 | 6.0 | 0.00 | 0.06 | 0.06 | 99 | 1015.7 |
| 20260831180134 | 72 | 81 | 0.0 | 1.0 | 0.00 | 0.06 | 0.06 | 99 | 1015.7 |
| 20260831175628 | 72 | 62 | 1.0 | 2.0 | 0.00 | 0.06 | 0.06 | 99 | 1015.7 |
| 20260831175126 | 72 | 93 | 2.0 | 3.0 | 0.00 | 0.06 | 0.06 | 99 | 1015.9 |
| 20260831174625 | 72 | 38 | 0.0 | 0.0 | 0.00 | 0.06 | 0.06 | 99 | 1015.7 |
| 20260831174120 | 72 | 45 | 0.0 | 0.0 | 0.00 | 0.06 | 0.06 | 99 | 1015.4 |
| 20260831173619 | 72 | 45 | 0.0 | 0.0 | 0.00 | 0.06 | 0.06 | 99 | 1015.5 |
| 20260831173115 | 72 | 212 | 0.0 | 0.0 | 0.00 | 0.06 | 0.06 | 99 | 1015.1 |
| 20260831172615 | 71 | 313 | 0.0 | 0.0 | 0.00 | 0.06 | 0.06 | 99 | 1015.2 |
| 20260831172114 | 71 | 288 | 0.0 | 0.0 | 0.00 | 0.06 | 0.06 | 99 | 1015.5 |
| 20260831171610 | 71 | 327 | 0.0 | 0.0 | 0.00 | 0.06 | 0.06 | 99 | 1015.1 |
| 20260831171108 | 71 | 30 | 0.0 | 0.0 | 0.00 | 0.06 | 0.06 | 99 | 1015.5 |
| 20260831170603 | 71 | 84 | 1.0 | 2.0 | 0.00 | 0.06 | 0.06 | 99 | 1015.5 |
| 20260831170101 | 71 | 243 | 0.0 | 0.0 | 0.00 | 0.06 | 0.06 | 99 | 1015.2 |
| 20260831165555 | 71 | 3 | 0.0 | 0.0 | 0.00 | 0.06 | 0.06 | 99 | 1015.1 |
| 20260831165052 | 71 | 41 | 0.0 | 0.0 | 0.00 | 0.06 | 0.06 | 99 | 1015.3 |
| 20260831164548 | 71 | 75 | 0.0 | 0.0 | 0.00 | 0.06 | 0.06 | 99 | 1015.3 |
| 20260831164043 | 71 | 49 | 0.0 | 0.0 | 0.00 | 0.06 | 0.06 | 99 | 1015.3 |
| 20260831163537 | 71 | 352 | 0.0 | 0.0 | 0.00 | 0.06 | 0.06 | 99 | 1015.5 |
| 20260831163033 | 71 | 78 | 0.0 | 0.0 | 0.00 | 0.06 | 0.06 | 99 | 1015.4 |
| 20260831162532 | 71 | 329 | 0.0 | 0.0 | 0.00 | 0.06 | 0.06 | 99 | 1015.7 |
| 20260831162030 | 71 | 275 | 0.0 | 0.0 | 0.00 | 0.06 | 0.06 | 99 | 1015.8 |
| 20260831161527 | 71 | 307 | 0.0 | 0.0 | 0.00 | 0.06 | 0.06 | 99 | 1016.1 |
| 20260831161023 | 71 | 285 | 0.0 | 0.0 | 0.05 | 0.06 | 0.06 | 99 | 1016.2 |
| 20260831160522 | 71 | 275 | 0.0 | 0.0 | 0.12 | 0.06 | 0.06 | 99 | 1016.6 |
| 20260831160018 | 71 | 254 | 0.0 | 0.0 | 0.14 | 0.05 | 0.05 | 99 | 1017.1 |
| 20260831155512 | 71 | 353 | 0.0 | 0.0 | 0.19 | 0.04 | 0.04 | 99 | 1016.9 |
| 20260831155007 | 71 | 214 | 1.0 | 1.0 | 0.12 | 0.03 | 0.03 | 98 | 1017.1 |
| 20260831154504 | 72 | 260 | 0.0 | 0.0 | 0.00 | 0.01 | 0.01 | 98 | 1017.2 |
| 20260831154003 | 72 | 278 | 0.0 | 0.0 | 0.05 | 0.01 | 0.01 | 96 | 1017.6 |
| 20260831153457 | 73 | 232 | 1.0 | 2.0 | 0.05 | 0.01 | 0.01 | 96 | 1017.7 |
| 20260831152954 | 73 | 243 | 1.0 | 1.0 | 0.00 | 0.00 | 0.00 | 95 | 1017.6 |
| 20260831152449 | 73 | 231 | 0.0 | 0.0 | 0.00 | 0.00 | 0.00 | 94 | 1017.7 |
| 20260831151944 | 73 | 289 | 1.0 | 1.0 | 0.00 | 0.00 | 0.00 | 93 | 1017.7 |
| 20260831151443 | 74 | 307 | 0.0 | 0.0 | 0.00 | 0.00 | 0.00 | 93 | 1017.4 |
| 20260831150939 | 74 | 311 | 2.0 | 2.0 | 0.00 | 0.00 | 0.00 | 92 | 1016.9 |
| 20260831150434 | 74 | 285 | 2.0 | 2.0 | 0.00 | 0.00 | 0.00 | 91 | 1016.8 |
| 20260831145933 | 74 | 232 | 3.0 | 3.0 | 0.00 | 0.00 | 0.00 | 91 | 1016.4 |
| 20260831145430 | 74 | 249 | 1.0 | 1.0 | 0.00 | 0.00 | 0.00 | 91 | 1016.3 |
| 20260831144925 | 73 | 293 | 2.0 | 2.0 | 0.00 | 0.00 | 0.00 | 92 | 1016.4 |
| 20260831144415 | 73 | 276 | 3.0 | 5.0 | 0.00 | 0.00 | 0.00 | 92 | 1016.3 |
| 20260831143910 | 73 | 288 | 1.0 | 1.0 | 0.00 | 0.00 | 0.00 | 93 | 1016.2 |
| 20260831143405 | 73 | 292 | 0.0 | 0.0 | 0.00 | 0.00 | 0.00 | 93 | 1016.3 |
| 20260831142901 | 73 | 301 | 0.0 | 0.0 | 0.00 | 0.00 | 0.00 | 93 | 1016.2 |
| 20260831142356 | 73 | 278 | 1.0 | 1.0 | 0.00 | 0.00 | 0.00 | 93 | 1016.0 |
| 20260831141850 | 73 | 299 | 2.0 | 2.0 | 0.00 | 0.00 | 0.00 | 93 | 1016.0 |
| 20260831141344 | 73 | 264 | 1.0 | 1.0 | 0.00 | 0.00 | 0.00 | 93 | 1015.9 |
| 20260831140839 | 73 | 280 | 0.0 | 1.0 | 0.00 | 0.00 | 0.00 | 94 | 1015.6 |
| 20260831140334 | 73 | 263 | 0.0 | 0.0 | 0.00 | 0.00 | 0.00 | 94 | 1015.9 |
| 20260831135832 | 73 | 278 | 0.0 | 0.0 | 0.00 | 0.00 | 0.00 | 94 | 1016.0 |
| 20260831135328 | 73 | 243 | 0.0 | 0.0 | 0.00 | 0.00 | 0.00 | 94 | 1015.6 |
| 20260831134823 | 73 | 240 | 0.0 | 1.0 | 0.00 | 0.00 | 0.00 | 93 | 1015.8 |
| 20260831134320 | 73 | 292 | 2.0 | 2.0 | 0.00 | 0.00 | 0.00 | 93 | 1015.8 |
| 20260831133819 | 73 | 238 | 2.0 | 2.0 | 0.00 | 0.00 | 0.00 | 93 | 1015.8 |
| 20260831133318 | 73 | 264 | 0.0 | 1.0 | 0.00 | 0.00 | 0.00 | 93 | 1015.8 |
| 20260831132814 | 73 | 277 | 2.0 | 2.0 | 0.00 | 0.00 | 0.00 | 93 | 1015.8 |
| 20260831132309 | 73 | 316 | 1.0 | 1.0 | 0.00 | 0.00 | 0.00 | 92 | 1015.8 |
| 20260831131803 | 73 | 287 | 1.0 | 1.0 | 0.00 | 0.00 | 0.00 | 93 | 1015.9 |